RS-38S
1 57189U 23091Z   26250.62164565  .00015326  00000-0  40622-3 0  9999
2 57189  97.5024 321.8706 0007994 129.8156 230.3794 15.38400339177354
SONATE-2
1 59112U 24043Q   26250.40276117  .00040534  00000-0  41075-3 0  9990
2 59112  97.5604  46.2907 0005128 253.0042 107.0655 15.65143703140724
GRBBeta
1 60237U 24128C   26250.50288395  .00001883  00000-0  13802-3 0  9997
2 60237  61.9882 287.3492 0028730 152.7520 207.5088 15.07138139118672
Curium One
1 60242U 24128H   26250.05260759  .00003742  00000-0  21855-3 0  9990
2 60242  61.9775 275.5852 0027727 147.2927 212.9893 15.13538748118843
ROBUSTA-3A
1 60243U 24128J   26250.59368910  .00003667  00000-0  21945-3 0  9994
2 60243  61.9850 276.6049 0029631 144.7193 215.5872 15.12654057118882
CatSat
1 60246U 24125J   26250.03398559  .00080705  00000-0  66388-3 0  9993
2 60246  97.1981 104.2196 0014854 227.7171 132.2833 15.70017149120186
AO-123
1 61781U 24199AY  26250.62865217  .00006575  00000-0  18484-3 0  9991
2 61781  97.2869 118.5626 0013972  20.2724 339.9072 15.36747212146589
LASARsat
1 62391U 24247Q   26250.14188976  .00031036  00000-0  51692-3 0  9998
2 62391  44.9725 159.9269 0008017 151.6299 208.5031 15.51481401 96020
CroCube
1 62394U 24247T   26250.14682354  .00038234  00000-0  57390-3 0  9998
2 62394  44.9695 155.6066 0008636 162.4507 197.6685 15.54266545 96077
JINJUSat 1B
1 63210U 25052A   26250.16900887  .00011296  00000-0  32592-3 0  9993
2 63210  97.3883 147.1241 0004558 125.4827 234.6843 15.35850955 82672
NUSHSAT 1
1 63211U 25052B   26249.67385699  .00014523  00000-0  37841-3 0  9994
2 63211  97.3854 147.5109 0004228 126.5140 233.6495 15.38958310 82660
TEVEL2-4
1 63213U 25052D   26250.52824890  .00015977  00000-0  43910-3 0  9991
2 63213  97.3779 147.1642 0003589 132.9338 227.2208 15.37290898 82755
TEVEL2-5
1 63214U 25052E   26250.16858890  .00012811  00000-0  35530-3 0  9992
2 63214  97.3775 146.7251 0003381 134.7543 225.3977 15.37059266 82698
TEVEL2-6
1 63215U 25052F   26250.05255753  .00013592  00000-0  37722-3 0  9992
2 63215  97.3779 146.5936 0003357 136.1906 223.9605 15.37024399 82672
TEVEL2-1
1 63217U 25052H   26249.65671395  .00012063  00000-0  34208-3 0  9990
2 63217  97.3751 145.7173 0002981 147.4115 212.7314 15.36380406 82594
TEVEL2-3
1 63218U 25052J   26250.49453072  .00014651  00000-0  41354-3 0  9990
2 63218  97.3759 146.5917 0002877 142.9103 217.2340 15.36480390 82726
TEVEL2-2
1 63219U 25052K   26250.50308368  .00015030  00000-0  42498-3 0  9992
2 63219  97.3753 146.5699 0003065 146.9932 213.1504 15.36419290 82720
TEVEL2-9
1 63237U 25052AD  26250.52713349  .00014026  00000-0  42535-3 0  9999
2 63237  97.3815 145.7780 0005201 186.7743 173.3431 15.34221173 82643
TEVEL2-7
1 63238U 25052AE  26249.67218701  .00010380  00000-0  31934-3 0  9996
2 63238  97.3815 144.8008 0005023 191.0755 169.0378 15.33841202 82508
TEVEL2-8
1 63239U 25052AF  26249.68113705  .00009947  00000-0  30625-3 0  9999
2 63239  97.3816 144.7846 0005064 191.3128 168.8001 15.33830941 82509
SPIRONE
1 66657U 25274H   26250.25031121  .00000953  00000-0  95042-4 0  9991
2 66657  97.7475 178.3804 0013573  99.4594 260.8161 14.93819782 42474
K-HERO
1 66660U 25274L   26249.76391596  .00001251  00000-0  12180-3 0  9997
2 66660  97.7482 178.1208 0015430 104.9604 255.3326 14.94215201 42413
SNUGLITE-III DURI
1 66661U 25274M   26250.01824836  .00001343  00000-0  13036-3 0  9999
2 66661  97.7481 178.3924 0016019 105.3809 254.9183 14.94224433 42453
SAKHACUBE-CHOLBON
1 67290U 25313AU  26250.47780036  .00006951  00000-0  27106-3 0  9998
2 67290  97.3871 324.5317 0010376  70.2698 289.9658 15.26205954 38529
RS95S (QMR-KWT-2)
1 67291U 25313AV  26249.65365636  .00008551  00000-0  31336-3 0  9990
2 67291  97.3871 324.0991 0009740  71.0880 289.1415 15.28203274 38425
Ten-Koh2
1 68261U 25241B   26250.16266876  .00003376  00000-0  14771-3 0  9996
2 68261  51.6646 289.2043 0007829  54.8581 305.3130 15.24800214 27414
JACK-002
1 68417U 26067B   26250.32733996  .00004351  00000-0  20356-3 0  9996
2 68417  97.4645 207.9904 0002624  40.4371 319.7059 15.20276048 24428
DISCO 2
1 68431U 26067R   26250.16255360  .00006026  00000-0  28159-3 0  9998
2 68431  97.4676 207.8253 0004148  78.5828 281.5873 15.20158711 24398
HADES-SA (SpinnyONE)
1 68446U 26067AG  26250.62276416  .00015349  00000-0  68179-3 0  9994
2 68446  97.4469 207.8691 0008138 132.2533 227.9394 15.21601045 24457
PARUS-6U1
1 68456U 26067AS  26250.32759751  .00003536  00000-0  17586-3 0  9991
2 68456  97.4633 207.5073 0006947 126.3068 233.8809 15.18260624 24395
SAL-E
1 68458U 26067AU  26250.10434744  .00005307  00000-0  25830-3 0  9990
2 68458  97.4553 207.1894 0006996 134.0177 226.1635 15.18786124 24363
FSI-SAT 2
1 68792U 26088A   26250.34810018  .00003248  00000-0  21830-3 0  9990
2 68792  97.5181  37.6325 0014203 180.7979 179.3229 15.07389258 20667
OrigamiSat 2
1 68795U 26088D   26250.35680580  .00009300  00000-0  56859-3 0  9997
2 68795  97.5166  38.0779 0015228 153.2337 206.9682 15.10374695 20698
ARICA 2
1 68796U 26088E   26250.40255421  .00002813  00000-0  18148-3 0  9997
2 68796  97.5172  38.0027 0016189 151.8622 208.3485 15.08987708 20699
WASEDA-SAT-ZERO-II
1 68797U 26088F   26250.38008650  .00004123  00000-0  26092-3 0  9998
2 68797  97.5158  38.0266 0015892 152.0210 208.1877 15.09433827 20697
MANGARO-II-Piscus
1 68798U 26088G   26250.37098135  .00003137  00000-0  20008-3 0  9990
2 68798  97.5176  38.0585 0019417 155.7102 204.5046 15.09280826 20696
CO-128
1 69912U 26156AV  26250.15662387  .00000929  00000-0  99705-4 0  9994
2 69912  97.7485 149.5081 0001466 330.9714  29.1423 14.90926000  9215
MARINA
1 69920U 26156BD  26250.17496224  .00001205  00000-0  12394-3 0  9996
2 69920  97.7454 149.6146 0006409 320.0487  40.0260 14.92137385  9226
IO-86
1 40931U          26199.45381863  .00000000  00000-0  77536-4 0    07
2 40931   6.0006 322.6653 0012733 338.8432 273.6875 14.79294310    03
LILIUM-4                
1 71922C 26067AC  26089.50133053 -.00014632  00000+0 -74472-3 0    04
2 71922  97.4497  49.1617 0004341   5.9603 355.7042 15.16896692    16
